This is the latest recevied weather packets stored in our database for station/object KF0PEC-15. If no packets are shown the sender has not sent any weather packets the latest 10 day(s).
| Time | Temp. | Humidity | Pressure | Rain* | Wind** | Luminosity | Snow |
|---|---|---|---|---|---|---|---|
| 1777929005 | 21.67° C | 24% | 998.8 hPa | 0 mm | - | 135 W/m² | - |
| 1777928460 | 21.67° C | 24% | 998.6 hPa | 0 mm | - | 122 W/m² | - |
| 1777927908 | 22.22° C | 22% | 998.8 hPa | 0 mm | - | 157 W/m² | - |
| 1777927360 | 22.22° C | 23% | 998.8 hPa | 0 mm | - | 422 W/m² | - |
| 1777926825 | 22.22° C | 23% | 999 hPa | 0 mm | - | 593 W/m² | - |
| 1777926255 | 21.67° C | 24% | 999.6 hPa | 0 mm | - | 371 W/m² | - |
| 1777925655 | 21.11° C | 25% | 1000.2 hPa | 0 mm | - | 534 W/m² | - |
| 1777925055 | 21.67° C | 22% | 999.7 hPa | 0 mm | - | 174 W/m² | - |
| 1777924540 | 22.22° C | 22% | 999.5 hPa | 0 mm | - | 189 W/m² | - |
| 1777924040 | 23.33° C | 20% | 998.4 hPa | 0 mm | - | 458 W/m² | - |
| 1777923495 | 22.78° C | 21% | 998.9 hPa | 0 mm | - | 383 W/m² | - |
| 1777923000 | 23.89° C | 20% | 998 hPa | 0 mm | - | 408 W/m² | - |
| 1777922400 | 23.33° C | 20% | 998.6 hPa | 0 mm | - | 861 W/m² | - |
| 1777921905 | 22.22° C | 21% | 999.3 hPa | 0 mm | - | 862 W/m² | - |
| 1777921315 | 23.33° C | 20% | 999 hPa | 0 mm | - | 213 W/m² | - |
| 1777920735 | 23.89° C | 20% | 998.8 hPa | 0 mm | - | 916 W/m² | - |
| 1777920255 | 22.22° C | 21% | 999.9 hPa | 0 mm | - | 888 W/m² | - |
| 1777919680 | 22.78° C | 22% | 1000 hPa | 0 mm | - | 626 W/m² | - |
| 1777919105 | 21.67° C | 21% | 1000.9 hPa | 0 mm | - | 265 W/m² | - |
| 1777918585 | 21.67° C | 21% | 1000.9 hPa | 0 mm | - | 250 W/m² | - |
| 1777918008 | 22.78° C | 19% | 1000.4 hPa | 0 mm | - | 708 W/m² | - |
| 1777917472 | 21.67° C | 21% | 1001.1 hPa | 0 mm | - | 900 W/m² | - |
| 1777916885 | 21.67° C | 21% | 1001.7 hPa | 0 mm | - | 345 W/m² | - |
| 1777916345 | 21.11° C | 22% | 1002.1 hPa | 0 mm | - | 542 W/m² | - |
| 1777915795 | 20.56° C | 23% | 1002.5 hPa | 0 mm | - | 418 W/m² | - |
* Rain latest hour (hover to see other rain measurements)
** Current wind speed in m/s (hover to see current wind gust speed)